#timestamp,LO_Frequency,Hit,StdDev 
1562796015.3,286046996.8,N
1562796035.1,286046997.1,N
1562796055.3,286046997.3,N
1562796075.2,286046999.1,N
1562796095.0,286046999.4,N
1562796095.9,286046999.4,N
1562796115.8,286046997.1,N
1562796135.6,286046999.6,N
1562796155.4,286046996.8,N
1562796175.3,286046998.0,N
1562796195.1,286046993.4,Y
1562796215.9,286046997.3,P
1562796235.7,286046998.0,P
1562796255.5,286046995.3,P
1562796275.4,286046997.6,N
1562796295.2,286046997.9,N
1562796315.1,286046995.3,Y
1562796316.0,286046995.3,P
1562796335.8,286047000.8,N
1562796355.6,286046999.2,N
1562796375.5,286047000.8,N
1562796395.3,286046999.2,N
1562796415.1,286046999.3,N
1562796435.9,286046996.6,N
1562796455.7,286046996.7,N
1562796475.6,286046996.6,N
1562796495.4,286046999.2,N
1562796515.2,286046996.7,N
1562796535.1,286046997.4,N
1562796536.0,286046997.4,N
1562796555.8,286046999.1,N
1562796575.7,286046996.5,N
1562796595.5,286046999.2,N
1562796615.3,286046998.2,N
1562796635.2,286046999.0,N
1562796655.0,286046998.9,N
1562796655.9,286046998.9,N
1562796675.7,286046998.5,N
1562796695.6,286046998.8,N
1562796715.4,286046998.3,N
1562796735.3,286046998.4,N
1562796755.1,286047000.4,N
1562796775.9,286047000.5,N
1562796795.7,286047000.5,N
1562796815.5,286047000.2,N
1562796835.4,286047001.9,N
1562796855.2,286047004.2,N
1562796875.0,286047004.1,N
1562796875.9,286047004.1,N
1562796895.8,286047004.0,N
1562796915.6,286047001.7,N
1562796935.5,286047003.5,N
1562796955.3,286047003.6,N
1562796975.1,286047002.9,N
1562796995.9,286047004.0,N
1562797015.7,286047001.7,N
1562797035.6,286047001.4,N
1562797055.4,286047004.3,N
1562797075.2,286047004.3,N
1562797095.1,286047002.5,N
1562797096.0,286047002.5,N
1562797115.8,286047001.7,N
1562797135.6,286047003.4,N
1562797155.5,286047001.7,N
1562797175.3,286047001.5,N
1562797195.2,286047004.8,N
1562797215.9,286047002.9,N
1562797235.7,286047005.9,Y
1562797255.6,286047001.6,P
1562797275.4,286047000.4,N
1562797295.3,286047000.4,N
1562797315.1,286047001.1,N
1562797316.0,286047001.1,N
1562797335.8,286047000.9,N
1562797355.7,286047000.8,N
1562797375.5,286046998.2,Y
1562797395.4,286046999.8,P
1562797415.2,286047002.5,P
1562797435.0,286047001.7,N
1562797435.9,286047001.7,N
1562797455.8,286047001.4,N
1562797475.6,286047004.0,Y
1562797495.4,286047000.7,P
1562797515.3,286047002.8,P
1562797535.1,286047000.4,N
1562797555.9,286046998.9,N
1562797575.7,286047001.2,N
1562797595.5,286047000.7,N
1562797615.4,286046998.2,N
1562797635.2,286046998.7,N
1562797655.0,286046999.4,N
1562797656.0,286046999.4,N
1562797675.8,286046998.7,N
1562797695.6,286046998.5,N
1562797715.5,286046998.4,N
1562797735.3,286046999.4,N
1562797755.1,286046998.5,N
1562797775.9,286047000.6,N
1562797795.7,286047001.2,N
1562797815.6,286047000.7,N
1562797835.4,286046999.9,N
1562797855.2,286047002.6,N
1562797875.1,286047002.4,N
1562797876.0,286047002.4,N
1562797895.8,286046999.7,N
1562797915.6,286047000.2,N
1562797935.5,286047000.2,N
1562797955.3,286047001.9,N
1562797975.2,286046999.8,N
1562797995.9,286047002.8,N
1562798015.7,286046999.8,N
1562798035.6,286047002.0,N
1562798055.4,286046999.7,N
1562798075.3,286047000.1,N
1562798095.1,286047001.9,N
1562798096.0,286047001.9,N
1562798115.8,286047002.1,N
1562798135.7,286047001.9,N
1562798155.5,286047002.2,N
1562798175.4,286047002.7,N
1562798195.8,286046999.7,N
1562798215.6,286047002.3,N
1562798235.5,286047001.4,N
1562798255.3,286047002.2,N
1562798275.1,286047002.5,N
1562798295.9,286047002.2,N
1562798315.7,286047001.7,N
1562798335.6,286047001.8,N
1562798355.4,286047003.2,N
1562798375.2,286047005.9,Y
1562798395.1,286047001.8,P
1562798396.0,286047001.8,P
1562798415.8,286047001.6,P
1562798435.7,286047002.0,Y
1562798455.5,286047002.8,P
1562798475.3,286046999.0,N
1562798495.2,286046996.5,N
1562798515.0,286046999.3,N
1562798515.9,286046999.3,N
1562798535.7,286046998.5,N
1562798555.6,286046999.3,N
1562798575.4,286046998.3,N
1562798595.3,286046999.5,N
1562798615.1,286046999.2,N
1562798635.8,286046999.6,N
1562798655.7,286046999.3,N
1562798675.5,286046999.5,N
1562798695.4,286046998.1,N
1562798715.2,286046998.5,N
1562798735.0,286046998.7,N
1562798735.9,286046998.7,N
1562798755.8,286046999.4,N
1562798775.7,286046998.9,N
1562798795.5,286047000.5,N
1562798815.4,286047001.0,N
1562798835.2,286047000.7,N
1562798855.0,286046998.9,N
1562798855.9,286046998.9,N
1562798875.8,286047001.2,N
1562798895.6,286047001.2,N
1562798915.5,286046999.4,N
1562798935.3,286047000.5,N
1562798955.1,286047000.5,N
1562798975.9,286046998.3,N
1562798995.7,286047000.4,N
1562799015.5,286047000.2,N
1562799035.4,286046999.9,N
1562799055.2,286047002.8,Y
1562799075.1,286047002.5,P
1562799076.0,286047002.5,N
1562799095.8,286047001.6,N
1562799115.6,286047001.3,N
1562799135.5,286047001.0,N
1562799155.3,286047002.3,N
1562799175.2,286047000.0,N
1562799195.9,286047002.4,N
1562799215.7,286046999.7,N
1562799235.6,286046999.0,N
1562799255.4,286047000.9,N
1562799275.2,286047000.4,N
1562799295.1,286047011.9,Y
1562799296.0,286046998.7,P
1562799315.8,286046997.2,N
1562799335.7,286046997.7,N
1562799355.5,286046997.3,N
1562799375.3,286046993.3,Y
1562799395.2,286046995.4,P
1562799415.0,286046994.9,P
1562799415.9,286046994.9,P
1562799435.8,286046997.9,N
1562799455.6,286046998.0,N
1562799475.4,286046997.1,N
1562799495.3,286046995.8,N
1562799515.1,286046995.3,Y
1562799535.9,286046999.1,P
1562799555.7,286046999.0,N
1562799575.5,286047000.6,N
1562799595.4,286046998.4,N
